Spokane, WA

6:57 PM PST on February 09, 2016 (GMT -0800)
Felts

Weather History for KSFF - April, 2014

Change the Weather History Date:

Tuesday, April 8, 2014

  Actual Average Record
Temperature  
Mean Temperature 56 °F 46 °F  
Max Temperature 72 °F 56 °F 72 °F (2014)
Min Temperature 39 °F 36 °F 25 °F (2011)
Degree Days  
Heating Degree Days 9 19  
Month to date heating degree days 133 158  
Since 1 July heating degree days 5545 5479  
Cooling Degree Days 0 0  
Month to date cooling degree days 0 0  
Year to date cooling degree days 0 0  
Growing Degree Days 5 (Base 50)    
Moisture  
Dew Point 37 °F    
Average Humidity 56    
Maximum Humidity 92    
Minimum Humidity 20    
Precipitation  
Precipitation T in 0.05 in 0.15 in (2006)
Month to date precipitation 0.09 0.40  
Year to date precipitation 5.54 5.30  
Sea Level Pressure  
Sea Level Pressure 30.01 in    
Wind  
Wind Speed 10 mph (WSW)    
Max Wind Speed 24 mph    
Max Gust Speed 30 mph    
Visibility 10 miles    
Events      
T = Trace of Precipitation, MM = Missing Value Source: NWS Daily Summary

Daily Weather History Graph

Daily Weather History Graph

Search for Another Location

Airport or City:

Trip Planner

Search our weather history database for the weather conditions in past years. The results will help you decide how hot, cold, wet, or windy it might be!

Date:

Astronomy

Apr. 08, 2014 Rise Set
Actual Time 6:13 AM PDT 7:29 PM PDT
Civil Twilight 5:42 AM PDT 8:01 PM PDT
Nautical Twilight 5:03 AM PDT 8:39 PM PDT
Astronomical Twilight 4:22 AM PDT 9:20 PM PDT
Moon 1:03 PM PDT (4/8) 2:54 AM PDT (4/8)
Length of Visible Light 14h 19m
Length of Day
13h 15m
Waxing Gibbous, 63% of the Moon is Illuminated
Apr 8
Waxing Gibbous
Apr 15
Full
Apr 22
Last Quarter
Apr 28
New
May 6
First Quarter

Hourly Weather History & Observations

Time (PDT) Temp. Windchill Dew Point Humidity Pressure Visibility Wind Dir Wind Speed Gust Speed Precip Events Conditions
12:53 AM 48.0 °F - 39.0 °F 71% 30.13 in 10.0 mi NNE 4.6 mph - N/A   Clear
1:53 AM 46.0 °F 43.9 °F 39.0 °F 76% 30.12 in 10.0 mi NNE 4.6 mph - N/A   Clear
2:53 AM 44.1 °F 41.5 °F 39.0 °F 82% 30.12 in 10.0 mi NNE 4.6 mph - N/A   Clear
3:53 AM 43.0 °F 41.3 °F 37.9 °F 82% 30.10 in 10.0 mi NE 3.5 mph - N/A   Clear
4:53 AM 41.0 °F 38.0 °F 37.9 °F 89% 30.10 in 10.0 mi NNE 4.6 mph - N/A   Clear
5:53 AM 41.0 °F 39.0 °F 37.0 °F 86% 30.09 in 10.0 mi NE 3.5 mph - N/A   Clear
6:53 AM 39.9 °F 36.7 °F 37.0 °F 89% 30.10 in 10.0 mi NNE 4.6 mph - N/A   Clear
7:53 AM 46.0 °F - 39.0 °F 76% 30.11 in 10.0 mi Calm Calm - N/A   Clear
8:53 AM 51.1 °F - 41.0 °F 68% 30.10 in 10.0 mi NNE 3.5 mph - N/A   Clear
9:53 AM 60.1 °F - 43.0 °F 53% 30.08 in 10.0 mi SSW 10.4 mph - N/A   Clear
10:53 AM 64.9 °F - 41.0 °F 42% 30.08 in 10.0 mi SSW 12.7 mph - N/A   Clear
11:53 AM 66.0 °F - 39.0 °F 37% 30.06 in 10.0 mi SW 17.3 mph - N/A   Clear
12:53 PM 69.1 °F - 37.0 °F 31% 30.04 in 10.0 mi SW 16.1 mph 21.9 mph N/A   Partly Cloudy
1:53 PM 70.0 °F - 37.0 °F 30% 30.02 in 10.0 mi WSW 12.7 mph 29.9 mph N/A   Partly Cloudy
2:53 PM 70.0 °F - 36.0 °F 29% 29.99 in 10.0 mi SSW 13.8 mph - N/A   Partly Cloudy
3:53 PM 71.1 °F - 32.0 °F 24% 29.96 in 10.0 mi WSW 16.1 mph 25.3 mph N/A   Clear
4:53 PM 71.1 °F - 28.9 °F 21% 29.94 in 10.0 mi WSW 15.0 mph 23.0 mph N/A   Partly Cloudy
5:53 PM 69.1 °F - 30.0 °F 23% 29.91 in 10.0 mi SW 13.8 mph 27.6 mph N/A   Mostly Cloudy
6:53 PM 68.0 °F - 34.0 °F 28% 29.89 in 10.0 mi SW 9.2 mph - N/A   Mostly Cloudy
7:53 PM 64.9 °F - 37.9 °F 37% 29.86 in 10.0 mi SSW 8.1 mph - N/A   Clear
8:53 PM 64.9 °F - 33.1 °F 31% 29.86 in 10.0 mi SSW 12.7 mph - N/A   Mostly Cloudy
9:53 PM 62.1 °F - 34.0 °F 35% 29.85 in 10.0 mi SW 10.4 mph - N/A   Overcast
10:53 PM 61.0 °F - 37.0 °F 41% 29.86 in 10.0 mi WSW 8.1 mph - N/A   Overcast
11:53 PM 59.0 °F - 39.9 °F 49% 29.88 in 10.0 mi WSW 11.5 mph 17.3 mph N/A   Overcast